ICEYE-X19

导读 | 豆包AI

ICEYE-X19是一颗由芬兰ICEYE公司制造的合成孔径雷达(SAR)卫星,于2022年5月25日在巴西发射升空。作为ICEYE全球最大SAR卫星星座的一员,它具备全天候、全天时成像能力,最高分辨率可达0.5米,能为灾害监测、海事监管、地缘态势等领域提供近实时精准观测数据,进一步扩展了星座服务全球客户的天基遥感能力。

基本信息
目录编号:
52758
目录名称:
ICEYE-X19
国际标识:
2022-057AC
轨道中心:
EARTH
卫星名称:
ICEYE-X19
卫星全名:
--
卫星状态:
已陨落 最后检测时间 2025-03-08
发射日期:
2022-05-25 UTC
国别 :
巴西 (BR)
星等 :
--
轨道信息
数据来源 国际轨道数据
星历时间: 2025-03-03T19:17:58+0800
轨道信息已过期396天
半长轴: 6535.984km
偏心率: 0.0011749
轨道倾角: 97.532°
近地点辐角 274.115°
升交点赤经 207.029°
平近点角 85.880°
近地点: 150.169km
远地点: 165.529km
周期: 87.645分钟
每日圈数: 16.429954
详细信息
使用方式:
暂无